Flag Weather past 2 weeks in Neuwied, Rhineland-Palatinate, Germany

Now
37 °F

Chilly.


Feels Like: 30 °F
Forecast: 34 / 42 °F
Wind: 10 mph from East

Location: Buechel

Current Time: Nov 26, 2014 at 2:33:49 AM

Latest Report: Nov 26, 2014 at 1:20 AM


Visibility: 2 mi

Pressure: 30.07 "Hg

Humidity: 100%

Dew point: 37 °F

Location of NeuwiedLocation

Historic Weather in Neuwied — Graph

°F

Neuwied temperature yesterday

Maximum temperature yesterday: 41 °F (at 1:20 PM)
Minimum temperature yesterday: 34 °F (at 7:20 AM)
Average temperature yesterday: 37 °F

Past Weeks' High & Low Weather Summary

 TemperatureHumidityPressure
High52 °F (Nov 22, 2:20 PM)100% (Nov 11, 1:20 AM)30.30 "Hg (Nov 11, 1:20 AM)
Low34 °F (Nov 24, 9:20 PM)66% (Nov 19, 1:20 PM)29.53 "Hg (Nov 16, 6:20 AM)
Average43 °F93%29.91 "Hg
* Reported Nov 11 1:20 AM — Nov 26 1:20 AM, Neuwied, Weather by CustomWeather, © 2014

Note: Actual official high and low records may vary slightly from our data, if they occured in-between our weather recording intervals... More about our weather records

Advertising

Neuwied weather history for previous 24 hours

 ConditionsComfort  
Time TempWeatherWind HumidityBarometerVisibility
1:20 AM
Nov 26
37 °FChilly.10 mph100%30.07 "Hg2 mi
12:20 AM37 °FChilly.10 mph93%30.07 "Hg1 mi
11:20 PM
Nov 25
37 °FChilly.12 mph93%30.09 "Hg1 mi
10:20 PM36 °FChilly.10 mph100%30.09 "Hg0 mi
9:20 PM36 °FChilly.10 mph100%30.12 "Hg1 mi
8:20 PM36 °FFog.12 mph100%30.12 "Hg2 mi
8:00 PM36 °FFog.12 mph100%30.12 "Hg2 mi
7:20 PM36 °FFog.10 mph100%30.12 "Hg3 mi
6:57 PM37 °FFog.12 mph93%30.12 "Hg3 mi
6:20 PM37 °FPartly cloudy.12 mph93%30.12 "Hg4 mi
5:20 PM37 °FPassing clouds.12 mph87%30.12 "HgN/A
4:20 PM37 °FScattered clouds.14 mph87%30.12 "HgN/A
3:20 PM39 °FScattered clouds.14 mph81%30.15 "HgN/A
2:20 PM41 °FScattered clouds.13 mph76%30.15 "HgN/A
1:20 PM41 °FFog.9 mph81%30.18 "HgN/A
12:20 PM39 °FFog.10 mph87%30.18 "HgN/A
11:20 AM37 °FFog.8 mph87%30.21 "HgN/A
10:20 AM37 °FFog.9 mph87%30.21 "HgN/A
9:20 AM34 °FFog.9 mph93%30.24 "HgN/A
8:20 AM34 °FFog.9 mph93%30.24 "HgN/A
7:20 AM34 °FPassing clouds.10 mph93%30.24 "HgN/A
6:20 AM36 °FChilly.10 mph87%30.24 "HgN/A
5:20 AM36 °FChilly.8 mph93%30.24 "HgN/A
4:20 AM36 °FChilly.8 mph93%30.24 "HgN/A
3:20 AM36 °FChilly.9 mph93%30.24 "Hg5 mi
2:20 AM36 °FChilly.9 mph93%30.27 "Hg5 mi
Weather by CustomWeather, © 2014

See weather overviewHow to use our weather pages